• în Republica Moldova
  • Lista ţărilor
  • Pe 7 zile
  • Temperatura apei
  • Hartă satelitară
  • Meteo pe hartă
  • Widget-uri
  • user-avatar
    Intrare

    Meteo pe oră la Barra

    Astăzi, 18 Septembrie, Marţi

    Timp Temperatura Precipitaţii Vânt Presiune Umiditate
    00:00 +21°C° 0 mm 3 m/s 751 mmHg 90%
    01:00 +21°C° 0 mm 3 m/s 751 mmHg 90%
    02:00 +21°C° 0.1 mm 3 m/s 751 mmHg 91%
    03:00 +21°C° 0.1 mm 3 m/s 751 mmHg 91%
    04:00 +21°C° 0 mm 3 m/s 750 mmHg 92%
    05:00 +21°C° 0.1 mm 3 m/s 751 mmHg 91%
    06:00 +21°C° 0.1 mm 3 m/s 751 mmHg 90%
    07:00 +22°C° 0.1 mm 3 m/s 751 mmHg 89%
    08:00 +24°C° 0.1 mm 3 m/s 752 mmHg 79%
    09:00 +26°C° 0.1 mm 3 m/s 752 mmHg 70%
    10:00 +28°C° 0 mm 3 m/s 752 mmHg 57%
    11:00 +28°C° 0 mm 3 m/s 752 mmHg 53%
    12:00 +29°C° 0 mm 4 m/s 751 mmHg 49%
    13:00 +30°C° 0 mm 4 m/s 751 mmHg 45%
    14:00 +29°C° 0 mm 4 m/s 750 mmHg 46%
    15:00 +29°C° 0 mm 4 m/s 750 mmHg 48%
    16:00 +28°C° 0 mm 3 m/s 749 mmHg 51%
    17:00 +26°C° 0 mm 3 m/s 750 mmHg 61%
    18:00 +24°C° 0 mm 2 m/s 750 mmHg 71%
    19:00 +21°C° 0 mm 2 m/s 750 mmHg 81%
    20:00 +20°C° 0 mm 2 m/s 750 mmHg 85%
    21:00 +20°C° 0 mm 2 m/s 751 mmHg 89%
    22:00 +19°C° 0 mm 2 m/s 751 mmHg 93%
    23:00 +19°C° 0 mm 2 m/s 751 mmHg 94%

    Mâine, 19 Septembrie, Miercuri

    Timp Temperatura Precipitaţii Vânt Presiune Umiditate
    00:00 +19°C° 0 mm 2 m/s 751 mmHg 95%
    01:00 +19°C° 0 mm 3 m/s 750 mmHg 96%
    02:00 +20°C° 0.1 mm 3 m/s 750 mmHg 94%
    03:00 +20°C° 0.1 mm 3 m/s 750 mmHg 92%
    04:00 +21°C° 0.1 mm 3 m/s 750 mmHg 90%
    05:00 +21°C° 0.1 mm 3 m/s 750 mmHg 90%
    06:00 +21°C° 0.1 mm 3 m/s 750 mmHg 90%
    07:00 +21°C° 0.1 mm 3 m/s 751 mmHg 90%
    08:00 +24°C° 0.2 mm 3 m/s 751 mmHg 83%
    09:00 +25°C° 0.2 mm 3 m/s 751 mmHg 76%
    10:00 +26°C° 0.2 mm 3 m/s 751 mmHg 69%
    11:00 +27°C° 0.1 mm 4 m/s 751 mmHg 64%
    12:00 +28°C° 0.1 mm 4 m/s 750 mmHg 58%
    13:00 +29°C° 0.1 mm 4 m/s 750 mmHg 53%
    14:00 +29°C° 0 mm 4 m/s 749 mmHg 53%
    15:00 +29°C° 0 mm 4 m/s 749 mmHg 54%
    16:00 +28°C° 0 mm 4 m/s 748 mmHg 55%
    17:00 +26°C° 0 mm 3 m/s 749 mmHg 65%
    18:00 +24°C° 0 mm 3 m/s 749 mmHg 75%
    19:00 +21°C° 0 mm 2 m/s 749 mmHg 85%
    20:00 +21°C° 0 mm 2 m/s 750 mmHg 88%
    21:00 +20°C° 0 mm 2 m/s 750 mmHg 91%
    22:00 +20°C° 0 mm 1 m/s 751 mmHg 94%
    23:00 +19°C° 0 mm 2 m/s 750 mmHg 94%

    Poimâine, 20 Septembrie, Joi

    Timp Temperatura Precipitaţii Vânt Presiune Umiditate
    00:00 +19°C° 0 mm 2 m/s 750 mmHg 95%
    01:00 +19°C° 0 mm 2 m/s 750 mmHg 95%
    02:00 +19°C° 0 mm 2 m/s 750 mmHg 95%
    03:00 +19°C° 0 mm 2 m/s 749 mmHg 95%
    04:00 +19°C° 0 mm 2 m/s 749 mmHg 96%
    05:00 +19°C° 0 mm 2 m/s 749 mmHg 94%
    06:00 +19°C° 0 mm 2 m/s 749 mmHg 93%
    07:00 +19°C° 0 mm 2 m/s 750 mmHg 91%
    08:00 +23°C° 0 mm 2 m/s 750 mmHg 77%
    09:00 +26°C° 0 mm 2 m/s 750 mmHg 62%
    10:00 +29°C° 0 mm 2 m/s 751 mmHg 48%
    11:00 +30°C° 0 mm 3 m/s 750 mmHg 43%
    12:00 +31°C° 0 mm 3 m/s 750 mmHg 39%
    13:00 +33°C° 0 mm 3 m/s 749 mmHg 34%
    14:00 +33°C° 0 mm 3 m/s 749 mmHg 35%
    15:00 +31°C° 0 mm 3 m/s 749 mmHg 37%
    16:00 +30°C° 0 mm 3 m/s 748 mmHg 38%
    17:00 +28°C° 0 mm 3 m/s 749 mmHg 49%
    18:00 +25°C° 0 mm 2 m/s 749 mmHg 60%
    19:00 +23°C° 0 mm 1 m/s 749 mmHg 71%
    20:00 +22°C° 0 mm 1 m/s 750 mmHg 75%
    21:00 +22°C° 0 mm 1 m/s 750 mmHg 78%
    22:00 +21°C° 0 mm 1 m/s 751 mmHg 81%
    23:00 +21°C° 0 mm 1 m/s 751 mmHg 83%

    21 Septembrie, Vineri

    Timp Temperatura Precipitaţii Vânt Presiune Umiditate
    00:00 +21°C° 0 mm 1 m/s 750 mmHg 84%
    01:00 +20°C° 0 mm 1 m/s 750 mmHg 85%
    02:00 +20°C° 0 mm 1 m/s 750 mmHg 85%
    03:00 +20°C° 0 mm 1 m/s 750 mmHg 85%
    04:00 +19°C° 0 mm 2 m/s 750 mmHg 86%
    05:00 +19°C° 0 mm 2 m/s 750 mmHg 82%
    06:00 +20°C° 0 mm 2 m/s 751 mmHg 79%
    07:00 +20°C° 0 mm 2 m/s 751 mmHg 76%
    08:00 +24°C° 0 mm 3 m/s 752 mmHg 68%
    09:00 +26°C° 0 mm 3 m/s 752 mmHg 60%
    10:00 +28°C° 0 mm 4 m/s 752 mmHg 52%
    11:00 +29°C° 0 mm 4 m/s 752 mmHg 50%
    12:00 +29°C° 0 mm 5 m/s 751 mmHg 49%
    13:00 +30°C° 0 mm 5 m/s 750 mmHg 47%
    14:00 +29°C° 0 mm 5 m/s 750 mmHg 50%
    15:00 +29°C° 0 mm 5 m/s 750 mmHg 53%
    16:00 +28°C° 0 mm 5 m/s 749 mmHg 56%
    17:00 +26°C° 0 mm 5 m/s 750 mmHg 64%
    18:00 +23°C° 0 mm 4 m/s 751 mmHg 72%
    19:00 +22°C° 0 mm 4 m/s 751 mmHg 81%
    20:00 +22°C° 0 mm 4 m/s 752 mmHg 83%
    21:00 +21°C° 0 mm 4 m/s 752 mmHg 85%
    22:00 +21°C° 0 mm 4 m/s 753 mmHg 88%
    23:00 +21°C° 0.1 mm 4 m/s 753 mmHg 88%

    22 Septembrie, Sâmbătă

    Timp Temperatura Precipitaţii Vânt Presiune Umiditate
    00:00 +21°C° 0.1 mm 4 m/s 752 mmHg 87%
    01:00 +21°C° 0.1 mm 4 m/s 752 mmHg 87%
    02:00 +21°C° 0.2 mm 4 m/s 752 mmHg 89%
    03:00 +21°C° 0.2 mm 4 m/s 752 mmHg 90%
    04:00 +21°C° 0.2 mm 5 m/s 752 mmHg 92%
    05:00 +21°C° 0.1 mm 5 m/s 752 mmHg 91%
    06:00 +21°C° 0.1 mm 5 m/s 753 mmHg 90%
    07:00 +21°C° 0.1 mm 5 m/s 753 mmHg 89%
    08:00 +22°C° 0.1 mm 5 m/s 753 mmHg 83%
    09:00 +23°C° 0.1 mm 5 m/s 753 mmHg 77%
    10:00 +24°C° 0.1 mm 6 m/s 754 mmHg 71%
    11:00 +26°C° 0.1 mm 6 m/s 753 mmHg 66%
    12:00 +27°C° 0.1 mm 6 m/s 752 mmHg 60%
    13:00 +28°C° 0.1 mm 6 m/s 752 mmHg 55%
    14:00 +27°C° 0 mm 6 m/s 751 mmHg 57%
    15:00 +27°C° 0 mm 6 m/s 751 mmHg 59%
    16:00 +26°C° 0 mm 6 m/s 751 mmHg 61%
    17:00 +24°C° 0 mm 6 m/s 751 mmHg 69%
    18:00 +23°C° 0 mm 5 m/s 752 mmHg 77%
    19:00 +21°C° 0 mm 5 m/s 753 mmHg 85%
    20:00 +21°C° 0.1 mm 5 m/s 753 mmHg 87%
    21:00 +21°C° 0.1 mm 5 m/s 753 mmHg 89%
    22:00 +21°C° 0.1 mm 5 m/s 753 mmHg 90%
    23:00 +21°C° 0.2 mm 6 m/s 753 mmHg 91%

    23 Septembrie, Duminică

    Timp Temperatura Precipitaţii Vânt Presiune Umiditate
    00:00 +21°C° 0.2 mm 6 m/s 753 mmHg 91%
    01:00 +21°C° 0.2 mm 6 m/s 752 mmHg 91%
    02:00 +20°C° 0.2 mm 5 m/s 752 mmHg 92%
    03:00 +20°C° 0.2 mm 5 m/s 752 mmHg 92%
    04:00 +20°C° 0.2 mm 5 m/s 752 mmHg 93%
    05:00 +20°C° 0.1 mm 5 m/s 752 mmHg 92%
    06:00 +20°C° 0.1 mm 5 m/s 753 mmHg 91%
    07:00 +20°C° 0.1 mm 5 m/s 753 mmHg 90%
    08:00 +22°C° 0.1 mm 5 m/s 753 mmHg 78%
    09:00 +23°C° 0.1 mm 5 m/s 753 mmHg 66%
    10:00 +26°C° 0.1 mm 5 m/s 753 mmHg 54%
    11:00 +27°C° 0 mm 5 m/s 753 mmHg 51%
    12:00 +28°C° 0 mm 5 m/s 752 mmHg 47%
    13:00 +29°C° 0 mm 6 m/s 751 mmHg 44%
    14:00 +28°C° 0 mm 6 m/s 751 mmHg 47%
    15:00 +28°C° 0 mm 6 m/s 751 mmHg 49%
    16:00 +27°C° 0 mm 6 m/s 750 mmHg 52%
    17:00 +25°C° 0 mm 5 m/s 751 mmHg 62%
    18:00 +23°C° 0 mm 5 m/s 751 mmHg 72%
    19:00 +21°C° 0 mm 5 m/s 752 mmHg 82%
    20:00 +21°C° 0.1 mm 5 m/s 752 mmHg 85%
    21:00 +20°C° 0.1 mm 5 m/s 752 mmHg 87%
    22:00 +20°C° 0.1 mm 5 m/s 753 mmHg 90%
    23:00 +20°C° 0.2 mm 4 m/s 752 mmHg 90%
    Arată mai mult